Weather History for Leesburg, FL

Change the Weather History Date:

Thursday, November 3, 2011

  Actual Average Record
Temperature  
Mean Temperature 69 °F -  
Max Temperature 80 °F 78 °F 88 °F (2003)
Min Temperature 59 °F 59 °F 35 °F (1966)
Cooling Degree Days 4    
Growing Degree Days 19 (Base 50)    
Moisture  
Dew Point 60 °F    
Average Humidity 78    
Maximum Humidity 96    
Minimum Humidity 50    
Precipitation  
Precipitation 0.00 in - - ()
Sea Level Pressure  
Sea Level Pressure 30.09 in    
Wind  
Wind Speed 5 mph (ENE)    
Max Wind Speed 7 mph    
Max Gust Speed -    
Visibility 9 miles    
Events      
Averages and records for this station are not official NWS values.
T = Trace of Precipitation, MM = Missing Value Source: NWS Daily Summary

Daily Weather History Graph

Daily Weather History Graph

Search for Another Location

Airport:

Trip Planner

Search our weather history database for the weather conditions in past years. The results will help you decide how hot, cold, wet, or windy it might be!

Date:

Astronomy

Nov. 03, 2011 Rise Set
Actual Time 7:40 AM EDT 6:40 PM EDT
Civil Twilight 7:16 AM EDT 7:04 PM EDT
Nautical Twilight 6:48 AM EDT 7:32 PM EDT
Astronomical Twilight 6:20 AM EDT 8:00 PM EDT
Moon 2:34 PM EDT (11/3) 1:23 AM EDT (11/3)
Length of Visible Light 11h 48m
Length of Day
10h 59m
First Quarter, 60% of the Moon is Illuminated
Nov 3
First Quarter
Nov 10
Full
Nov 18
Last Quarter
Nov 25
New
Dec 2
First Quarter

Hourly Weather History & Observations

Time (EDT) Temp. Dew Point Humidity Pressure Visibility Wind Dir Wind Speed Gust Speed Precip Events Conditions
12:53 AM 64.0 °F 61.0 °F 90% 30.17 in 10.0 mi NNE 6.9 mph - N/A   Clear
1:53 AM 62.1 °F 59.0 °F 90% 30.17 in 10.0 mi NNW 4.6 mph - N/A   Partly Cloudy
2:53 AM 61.0 °F 59.0 °F 93% 30.15 in 9.0 mi North 5.8 mph - N/A   Partly Cloudy
3:53 AM 62.1 °F 59.0 °F 90% 30.14 in 9.0 mi North 6.9 mph - N/A   Overcast
4:53 AM 61.0 °F 59.0 °F 93% 30.14 in 8.0 mi NNE 6.9 mph - N/A   Clear
5:53 AM 61.0 °F 59.0 °F 93% 30.13 in 8.0 mi North 3.5 mph - N/A   Overcast
6:53 AM 60.1 °F 57.9 °F 93% 30.14 in 7.0 mi Calm Calm - N/A   Clear
7:53 AM 59.0 °F 57.9 °F 96% 30.14 in 5.0 mi NNW 3.5 mph - N/A   Mostly Cloudy
8:53 AM 62.1 °F 59.0 °F 90% 30.16 in 8.0 mi North 3.5 mph - N/A   Mostly Cloudy
9:53 AM 66.0 °F 61.0 °F 84% 30.16 in 10.0 mi Variable 3.5 mph - N/A   Mostly Cloudy
10:53 AM 72.0 °F 62.1 °F 71% 30.16 in 9.0 mi Calm Calm - N/A   Mostly Cloudy
11:53 AM 75.0 °F 62.1 °F 64% 30.14 in 10.0 mi SE 3.5 mph - N/A   Scattered Clouds
12:53 PM 78.1 °F 61.0 °F 56% 30.11 in 10.0 mi Variable 4.6 mph - N/A   Partly Cloudy
1:53 PM 79.0 °F 59.0 °F 50% 30.07 in 10.0 mi South 5.8 mph - N/A   Clear
3:53 PM 79.0 °F 59.0 °F 50% 30.01 in 10.0 mi SSE 3.5 mph - N/A   Clear
5:53 PM 75.9 °F 62.1 °F 62% 29.99 in 10.0 mi SSE 3.5 mph - N/A   Overcast
6:53 PM 73.9 °F 62.1 °F 66% 29.99 in 10.0 mi Calm Calm - N/A   Mostly Cloudy
7:53 PM 72.0 °F 63.0 °F 73% 29.99 in 10.0 mi SSE 4.6 mph - N/A   Mostly Cloudy
8:53 PM 71.1 °F 62.1 °F 73% 29.99 in 10.0 mi South 3.5 mph - N/A   Mostly Cloudy
10:53 PM 66.9 °F 61.0 °F 81% 29.99 in 10.0 mi SSW 6.9 mph - N/A   Scattered Clouds
11:53 PM 66.9 °F 62.1 °F 84% 29.98 in 10.0 mi South 4.6 mph - N/A   Mostly Cloudy